Content
SEND FEEDBACK

Daily
Averages
Monthly
Summary
New Zealand

PARAPARAUMU, NEW ZEALAND


Home > Oceania > New Zealand
Elevation: 22 feet     Latitude: 40 53S     Longitude: 174 59E

WEATHER
 
SELECT A DAY
Number of Records: 140,043;   Date Range: 7/1/96 - 4/21/13
 
SHARE

PRINT THIS DATA

[ ← Previous Day ]
WEATHER ALMANAC - JANUARY 31, 2013
[ Next Day → ]
[ °C ]   °F
Weather ElementAverageHighLow
Temperature68.4 °F75.2 °F (1:00 pm)64.4 °F (2:00 am)
Dewpoint57.1 °F59 °F (5:00 am)53.6 °F (2:00 am)
Humidity68.1 %83 % (5:00 am)50 % (5:00 pm)
Barometer30.15 in30.18 in (1:00 am)30.09 in (8:00 pm)
Wind Speed20.1 mph25.3 mph (12:00 pm)
Weather ElementAverage
Visibility6.2 mi
Wind DirectionESE (105.2 °)

Weather ElementTotal
Precipitation---
Cooling Degree Days4.8 (Base 65)
Growing Degree Days19.8 (Base 50)
Averaged from 23 records on January 31, 2013
WEATHER CONDITIONS BREAKOUT
WIND DIRECTION BREAKOUT
WEATHER BY HOUR - JANUARY 31, 2013
[ °C ]   °F
Local TimeTemperatureDewpointHumidityBarometerVisibilityWind DirectionWind SpeedGust SpeedPrecipitationEventsConditions
1:00 AM66.2 °F55.4 °F68 %30.18 in6.2 miNNE (30°)18.4 mphPartly Cloudy
2:00 AM64.4 °F53.6 °F68 %30.18 in6.2 miNNE (20°)19.6 mphPartly Cloudy
3:00 AM64.4 °F53.6 °F68 %30.18 in6.2 miNNE (20°)19.6 mphPartly Cloudy
4:00 AM64.4 °F55.4 °F73 %30.18 in6.2 miNorth (360°)20.7 mphPartly Cloudy
5:00 AM64.4 °F59.0 °F83 %30.18 in6.2 miNNE (20°)23.0 mphPartly Cloudy
6:00 AM64.4 °F59.0 °F83 %30.18 in6.2 miNNE (20°)24.2 mphScattered Clouds
7:00 AM64.4 °F59.0 °F83 %30.18 in6.2 miNNE (20°)21.9 mphScattered Clouds
8:00 AM64.4 °F59.0 °F83 %30.18 in6.2 miNNE (20°)24.2 mphScattered Clouds
9:00 AM68.0 °F59.0 °F73 %30.18 in6.2 miNorth (10°)23.0 mphPartly Cloudy
10:00 AM69.8 °F59.0 °F68 %30.18 in6.2 miNNE (20°)20.7 mphPartly Cloudy
11:00 AM71.6 °F59.0 °F64 %30.18 in6.2 miNorth (10°)24.2 mphPartly Cloudy
12:00 PM73.4 °F59.0 °F61 %30.15 in6.2 miNorth (10°)25.3 mphPartly Cloudy
1:00 PM75.2 °F59.0 °F57 %30.15 in6.2 miNorth (360°)21.9 mphPartly Cloudy
2:00 PM73.4 °F59.0 °F61 %30.15 in6.2 miNorth (360°)23.0 mphPartly Cloudy
3:00 PM73.4 °F57.2 °F57 %30.15 in6.2 miNorth (360°)19.6 mphPartly Cloudy
4:00 PM73.4 °F55.4 °F53 %30.12 in6.2 miNorth (360°)19.6 mphPartly Cloudy
5:00 PM73.4 °F53.6 °F50 %30.12 in6.2 miNorth (10°)19.6 mphPartly Cloudy
6:00 PM71.6 °F53.6 °F53 %30.12 inNorth (10°)18.4 mphClear
7:00 PM69.8 °F57.2 °F64 %30.12 inNorth (10°)18.4 mphClear
8:00 PM68.0 °F57.2 °F68 %30.09 inNorth (10°)18.4 mphClear
9:00 PM66.2 °F57.2 °F73 %30.12 inNorth (10°)13.8 mphClear
10:00 PM64.4 °F55.4 °F73 %30.12 inNorth (10°)12.7 mphClear
11:00 PM64.4 °F59.0 °F83 %30.12 inNorth (360°)12.7 mphClear
Hourly data recorded from NZPP, located miles away from Paraparaumu, New Zealand







STORIES FROM OUR PARTNERS